Flag for Greece Weather past 2 weeks in Iráklion, Crete, Greece

Now
70 °F

Clear.


Feels Like: 70 °F
Forecast: 69 / 87 °F
Wind: 6 mph from Southeast

Location: Heraklion Airport

Current Time: Sep 1, 2015 at 7:12:09 AM

Latest Report: Sep 1, 2015 at 6:20 AM


Visibility: 10 mi

Pressure: 29.89 "Hg

Humidity: 73%

Dew point: 61 °F

Location of IráklionLocation

Historic Weather in Iráklion — Graph

°F

Iráklion temperature yesterday

Maximum temperature yesterday: 82 °F (at 11:50 AM)
Minimum temperature yesterday: 68 °F (at 6:50 AM)
Average temperature yesterday: 78 °F

Past Weeks' High & Low Weather Summary

 TemperatureHumidityPressure
High88 °F (Aug 17, 2:50 PM)89% (Aug 19, 2:50 AM)30.04 "Hg (Aug 19, 2:50 AM)
Low68 °F (Aug 31, 6:50 AM)40% (Aug 18, 8:50 AM)29.80 "Hg (Aug 17, 8:50 AM)
Average79 °F67%29.90 "Hg
* Reported Aug 17 5:50 AM — Sep 1 5:50 AM, Iráklion, Weather by CustomWeather, © 2015

Note: Actual official high and low records may vary slightly from our data, if they occured in-between our weather recording intervals... More about our weather records

Advertising

Iráklion weather history for previous 24 hours

 ConditionsComfort  
Time TempWeatherWind HumidityBarometerVisibility
5:50 AM
Tue, Sep 1
70 °FClear.6 mph73%29.89 "Hg10 mi
4:50 AM70 °FClear.6 mph73%29.89 "Hg10 mi
4:20 AM70 °FClear.6 mph73%29.89 "Hg10 mi
3:50 AM70 °FClear.6 mph73%29.89 "Hg10 mi
3:20 AM72 °FClear.6 mph78%29.92 "Hg10 mi
2:50 AM72 °FClear.6 mph78%29.92 "Hg10 mi
2:20 AM72 °FClear.6 mph78%29.92 "Hg10 mi
1:50 AM72 °FClear.6 mph78%29.92 "Hg10 mi
12:50 AM73 °FClear.6 mph83%29.92 "Hg10 mi
12:20 AM73 °FClear.8 mph83%29.92 "Hg10 mi
11:50 PM
Mon, Aug 31
73 °FClear.3 mph83%29.92 "Hg10 mi
11:20 PM73 °FClear.3 mph83%29.92 "Hg10 mi
10:50 PM73 °FClear.No wind83%29.92 "Hg10 mi
10:20 PM79 °FClear.No wind79%29.92 "Hg10 mi
9:50 PM79 °FClear.3 mph79%29.92 "Hg10 mi
9:20 PM79 °FClear.6 mph79%29.92 "Hg10 mi
8:50 PM79 °FClear.6 mph79%29.92 "Hg10 mi
8:20 PM79 °FSunny.8 mph79%29.92 "Hg10 mi
7:50 PM79 °FSunny.8 mph79%29.92 "Hg10 mi
7:20 PM81 °FSunny.8 mph74%29.92 "Hg10 mi
6:50 PM81 °FSunny.12 mph74%29.92 "Hg10 mi
6:20 PM82 °FSunny.12 mph70%29.92 "Hg10 mi
5:50 PM82 °FSunny.12 mph70%29.92 "Hg10 mi
5:20 PM82 °FSunny.14 mph70%29.92 "Hg10 mi
4:50 PM82 °FSunny.12 mph70%29.92 "Hg10 mi
4:20 PM82 °FSunny.10 mph70%29.95 "Hg10 mi
3:50 PM82 °FSunny.10 mph70%29.95 "Hg10 mi
3:20 PM82 °FSunny.15 mph66%29.95 "Hg10 mi
2:50 PM82 °FSunny.17 mph66%29.95 "Hg10 mi
2:20 PM82 °FSunny.14 mph66%29.95 "Hg10 mi
1:50 PM82 °FSunny.17 mph66%29.95 "Hg10 mi
1:20 PM82 °FSunny.18 mph70%29.95 "Hg10 mi
12:50 PM82 °FSunny.18 mph70%29.95 "Hg10 mi
12:20 PM82 °FSunny.17 mph66%29.95 "Hg10 mi
11:50 AM82 °FSunny.17 mph66%29.95 "Hg10 mi
11:20 AM81 °FSunny.15 mph70%29.95 "Hg10 mi
10:50 AM81 °FSunny.15 mph70%29.95 "Hg10 mi
10:20 AM81 °FSunny.17 mph54%29.95 "Hg10 mi
9:50 AM79 °FSunny.17 mph54%29.92 "Hg10 mi
9:20 AM79 °FSunny.No wind54%29.92 "Hg10 mi
8:50 AM79 °FSunny.No wind54%29.92 "Hg10 mi
8:20 AM75 °FSunny.6 mph57%29.92 "Hg10 mi
7:50 AM70 °FSunny.5 mph69%29.92 "Hg10 mi
7:20 AM70 °FClear.7 mph64%29.92 "Hg10 mi
Weather by CustomWeather, © 2015

See weather overviewHow to use our weather pages